SCP
0 -0 -0 -0 -0 -0 0 0 0 0 0 0 0 0 -0 -0 1 0 0 0 0 1 1 0 0 0 0 0 0 0 0 0 0 0 0 0 0 -0 -0 -0 -0 -0 0 0 0 0 0 0 0
0 -0 -0 0 0 -0 0 0 0 0 0 0 0 0 0 0 0 0 0 0 0 1 1 0 0 0 0 0 0 0 0 0 0 0 0 0 0 -0 -0 -0 -0 -0 -0 0 0 0 0 0 0
-0 -0 -0 0 -0 -0 0 0 0 0 0 0 0 0 0 0 0 0 0 -0 0 0 0 0 0 1 1 1 1 1 1 1 0 0 0 0 0 0 -0 0 -0 -0 -0 0 0 0 0 0 0
-0 -0 -0 0 -0 0 0 0 0 0 0 0 0 0 0 0 0 0 0 0 0 0 0 0 0 0 0 1 1 1 1 1 1 1 1 0 0 0 0 0 0 -0 -0 0 0 0 0 0 0
-0 -0 0 0 0 0 0 0 0 0 0 0 0 0 0 0 0 0 0 0 0 0 0 0 0 0 0 0 0 0 1 1 1 1 1 1 1 1 0 0 0 0 0 0 0 0 0 0 0
-0 -0 0 -0 0 0 0 0 0 0 0 0 0 0 0 0 0 0 0 0 0 0 0 0 0 0 0 0 0 0 0 0 0 1 1 1 1 1 1 0 0 0 0 0 0 0 0 0 0
-0 -0 0 0 0 0 0 0 0 0 0 0 0 0 0 0 0 0 0 0 0 0 0 0 0 0 0 0 0 0 0 0 0 0 0 0 0 0 1 1 0 0 0 0 0 0 0 0 0
0 0 -0 0 0 0 0 0 0 0 0 0 0 0 0 0 0 0 0 0 0 0 0 0 0 0 0 0 0 0 0 0 0 0 0 0 0 0 0 1 1 1 1 0 0 0 0 0 0
-0 -0 0 0 0 0 0 0 0 0 0 0 0 0 0 0 0 0 0 0 0 0 0 0 0 0 0 0 0 0 0 0 0 0 0 0 0 0 0 0 0 0 0 0 0 0 0 0 0
-0 -0 0 0 0 0 0 0 0 0 0 0 0 0 0 0 0 0 0 0 0 0 0 0 0 0 0 0 0 0 0 0 0 0 0 0 0 0 0 0 0 0 0 0 0 0 1 1 0
0 -0 0 0 0 0 0 0 0 0 0 0 0 0 0 0 0 0 0 0 0 0 0 0 0 0 0 0 0 0 0 0 0 0 0 0 0 0 0 0 0 0 0 0 0 0 1 1 1
0 0 0 0 0 0 0 0 0 0 0 0 0 0 0 0 0 0 0 0 0 0 0 0 0 0 0 0 0 0 0 0 0 0 0 0 0 0 0 0 0 0 0 0 0 0 0 0 1
0 0 0 0 0 0 0 0 0 0 0 0 0 0 0 0 0 0 0 0 0 0 0 0 0 0 0 0 0 0 0 0 0 0 0 0 0 0 0 0 0 0 0 0 0 0 0 0 0
0 0 0 0 0 0 0 0 0 0 0 0 0 0 0 0 0 0 0 0 0 0 0 0 0 0 0 0 0 0 0 0 0 0 0 0 0 0 0 0 0 0 0 0 0 0 0 0 0
0 0 0 0 0 0 0 0 0 0 0 0 0 0 0 0 0 0 0 0 0 0 0 0 0 0 0 0 0 0 0 0 0 0 0 0 0 0 0 0 0 0 0 0 0 0 0 0 0
0 0 0 0 0 0 0 0 0 0 0 0 0 0 0 0 0 0 0 0 0 0 0 0 0 0 0 0 0 0 0 0 0 0 0 0 0 0 0 0 0 0 0 0 0 0 0 0 0
0 0 0 0 0 0 0 0 0 0 0 0 0 0 0 0 0 0 0 0 0 0 0 0 0 0 0 0 0 0 0 0 0 0 0 0 0 0 0 0 0 0 0 0 0 0 0 0 0
0 0 0 0 0 0 0 0 0 0 0 0 0 0 0 0 0 0 0 0 0 0 0 0 0 0 0 0 0 0 0 0 0 0 0 0 0 0 0 0 0 0 0 0 0 0 0 0 0
0 0 0 0 0 0 0 0 0 0 0 0 0 0 0 0 0 0 0 0 0 0 0 0 0 0 0 0 0 0 0 0 0 0 0 0 0 0 0 0 0 0 0 0 0 0 0 0 0
0 0 0 0 0 0 0 0 0 0 0 0 0 0 0 0 0 0 0 0 0 0 0 0 0 0 0 0 0 0 0 0 0 0 0 0 0 0 0 0 0 0 0 0 0 0 0 0 0
0 0 0 0 0 0 0 0 0 0 0 0 0 0 0 0 0 0 0 0 0 0 0 0 0 0 0 0 0 0 0 0 0 0 0 0 0 0 0 0 0 0 0 0 0 0 0 0 0
0 0 0 0 0 0 0 0 0 0 0 0 0 0 0 0 0 0 0 0 0 0 0 0 0 0 0 0 0 0 0 0 0 0 0 0 0 0 0 0 0 0 0 0 0 0 0 0 0
0 0 0 0 0 0 0 0 0 0 0 0 0 0 0 0 0 0 0 0 0 0 0 0 0 0 0 0 0 0 0 0 0 0 0 0 0 0 0 0 0 0 0 0 0 0 0 0 0
0 0 0 0 0 0 0 0 0 0 0 0 0 0 0 0 0 0 0 0 0 0 0 0 0 0 0 0 0 0 0 0 0 0 0 0 0 0 0 0 0 0 0 0 0 0 0 0 0
0 0 0 0 0 0 0 0 0 0 0 0 0 0 0 0 0 0 0 0 0 0 0 0 0 0 0 0 0 0 0 0 0 0 0 0 0 0 0 0 0 0 0 0 0 0 0 0 0
0 0 0 0 0 0 0 0 0 0 0 0 0 0 0 0 0 0 0 0 0 0 0 0 0 0 0 0 0 0 0 0 0 0 0 0 0 0 0 0 0 0 0 0 0 0 0 0 0
0 0 0 0 0 0 0 0 0 0 0 0 0 0 0 0 0 0 0 0 0 0 0 0 0 0 0 0 0 0 0 0 0 0 0 0 0 0 0 0 0 0 0 0 0 0 0 0 0
0 0 0 0 0 0 0 0 0 0 0 0 0 0 0 0 0 0 0 0 0 0 0 0 0 0 0 0 0 0 0 0 0 0 0 0 0 0 0 0 0 0 0 0 0 0 0 0 0
0 0 0 0 0 0 0 0 0 0 0 0 0 0 0 0 0 0 0 0 0 0 0 0 0 0 0 0 0 0 0 0 0 0 0 0 0 0 0 0 0 0 0 0 0 0 0 0 0
0 0 0 0 0 0 0 0 0 0 0 0 0 0 0 0 0 0 0 0 0 0 0 0 0 0 0 0 0 0 0 0 0 0 0 0 0 0 0 0 0 0 0 0 0 0 0 0 0
Wind_Speed_500mb
13 19 14 13 15 17 8 11 13 19 14 11 9 32 43 49 25 23 18 26 20 23 24 6 5 3 3 3 2 2 3 3 2 4 5 7 7 7 7 7 8 8 9 10 12 13 14 15 16
13 15 14 23 18 22 15 13 18 28 27 35 33 29 27 21 31 16 19 19 11 12 9 11 7 3 1 1 1 2 2 1 3 4 6 8 8 9 9 8 7 8 10 12 14 15 16 17 18
14 16 28 14 22 21 19 15 27 31 23 20 22 26 17 18 19 13 18 12 10 19 11 10 6 3 1 1 2 3 4 5 6 7 8 9 11 12 13 12 11 10 12 13 15 17 19 20 20
10 17 20 20 21 16 24 25 29 28 19 9 31 24 22 15 9 20 21 13 16 17 7 8 4 2 1 4 5 6 7 8 9 9 10 10 11 12 14 15 16 16 16 16 18 20 22 22 21
16 25 23 24 11 7 9 23 26 26 18 18 23 19 20 14 20 24 17 17 16 15 8 8 6 3 3 5 5 6 9 10 12 13 14 15 15 16 16 17 18 20 21 22 21 22 23 25 24
24 16 20 19 19 11 14 20 19 17 19 21 35 28 17 11 18 21 18 15 15 15 11 11 10 10 13 13 11 10 10 12 14 15 16 17 19 20 21 21 20 21 25 27 28 28 28 28 28
27 16 30 6 18 20 19 18 21 25 23 18 14 15 16 14 19 20 18 15 12 10 10 10 10 11 10 14 14 12 12 12 14 16 17 17 19 21 22 25 27 26 26 27 28 30 33 33 34
24 13 20 14 20 22 16 15 8 20 21 13 10 14 21 24 23 20 19 16 12 12 9 6 4 5 8 9 9 11 13 13 14 15 17 17 20 19 18 20 28 29 32 33 34 30 31 34 35
18 18 20 17 19 25 26 24 9 13 28 17 12 26 31 33 28 24 21 18 15 14 13 11 10 8 9 10 9 12 12 13 13 15 14 17 19 20 20 28 30 32 33 36 39 40 41 39 40
24 20 13 10 8 21 29 25 26 23 28 22 31 31 33 31 26 22 17 18 19 18 16 14 12 10 12 11 11 13 13 14 16 18 18 19 21 26 29 28 30 29 32 31 35 38 42 46 41
21 26 13 4 6 9 23 22 18 28 26 24 33 37 33 31 27 23 21 20 20 18 19 17 13 11 11 16 19 22 24 24 25 25 25 23 21 23 24 24 24 27 37 33 36 40 37 36 38
25 9 13 14 9 15 17 22 11 14 27 28 36 35 33 30 26 22 20 20 18 19 18 16 15 15 17 18 17 19 21 24 26 28 28 30 32 33 32 30 29 27 26 31 34 37 40 44 44
24 13 14 8 16 20 6 17 16 20 29 35 36 33 31 27 25 23 22 21 20 18 17 17 16 14 12 12 14 16 18 19 21 25 29 32 33 33 33 33 29 29 32 32 35 33 36 42 39
12 17 20 23 27 21 24 11 28 21 29 33 34 32 29 26 25 24 21 20 19 16 15 15 12 10 9 9 11 14 18 22 27 32 34 33 35 39 41 37 32 31 36 37 36 35 36 38 42
24 24 28 30 32 23 31 31 36 44 37 35 33 30 28 25 23 20 19 19 16 15 14 13 11 8 5 7 11 15 18 20 22 26 34 39 43 42 38 34 34 36 41 40 37 37 35 37 39
24 30 31 36 35 32 30 35 38 41 46 40 36 32 30 27 23 21 19 18 15 15 12 9 7 7 9 11 14 16 21 21 24 28 32 38 39 40 41 36 34 42 38 36 36 37 40 42 45
33 28 38 18 24 23 32 34 31 41 42 41 40 38 36 31 26 23 21 18 15 14 10 8 7 6 9 13 15 19 24 22 21 24 29 38 39 40 38 32 37 42 36 33 35 39 39 43 45
31 34 35 31 29 28 33 34 32 42 44 44 43 42 39 35 32 27 23 20 16 14 11 8 6 8 11 14 14 12 16 17 20 23 30 34 36 39 37 30 34 35 34 34 38 43 44 43 43
38 31 37 24 18 20 32 35 39 40 44 45 47 48 44 40 34 29 25 21 18 15 11 9 6 8 10 10 13 12 16 16 18 22 29 31 33 35 34 32 33 34 35 37 37 39 44 46 44
32 35 39 34 12 9 32 28 27 36 45 51 51 50 47 43 37 32 26 22 18 15 13 10 7 8 11 12 15 17 17 17 17 22 24 29 34 35 32 34 34 37 37 35 38 39 42 40 39
34 36 31 32 16 24 31 30 34 35 45 49 52 50 49 48 42 36 30 24 19 15 12 10 8 7 10 13 15 18 17 18 20 25 25 33 33 35 33 34 35 37 35 36 39 39 41 50 47
33 34 32 28 25 28 36 20 32 44 43 43 53 56 54 51 45 39 34 29 24 17 13 10 7 7 11 14 16 20 19 22 25 26 28 33 32 33 32 34 34 36 39 41 45 45 45 42 44
29 11 18 30 31 32 33 17 30 44 39 48 55 60 56 53 49 45 40 32 25 21 15 11 8 6 9 14 17 17 20 23 24 28 32 30 29 28 30 32 38 35 35 40 40 44 42 36 46
7 16 17 19 22 31 35 31 27 29 47 41 49 58 57 53 50 46 40 34 27 21 17 13 10 5 5 9 16 20 22 25 25 27 28 28 29 29 32 33 35 36 37 42 46 41 39 43 44
25 23 15 19 22 28 20 31 33 14 17 28 38 57 59 57 55 50 47 40 31 25 20 15 11 4 3 9 15 19 21 22 23 26 27 32 30 31 33 37 40 38 43 49 44 41 42 42 43
39 38 22 25 25 30 25 19 19 14 23 13 15 49 56 59 57 54 50 43 37 29 23 18 11 6 2 8 13 15 21 20 21 23 26 28 31 32 37 39 40 38 41 46 44 42 40 42 47
36 40 43 39 40 23 27 32 19 19 21 21 24 41 53 57 58 56 51 46 38 31 24 19 12 5 1 6 14 18 21 25 24 25 24 25 29 33 35 41 39 37 43 45 41 41 42 44 49
41 19 24 19 25 42 37 38 34 26 31 30 28 39 49 54 56 54 52 46 37 30 24 19 11 6 0 8 14 19 22 23 24 22 24 27 29 31 36 37 37 36 42 41 40 44 46 45 48
25 33 30 26 31 25 31 31 16 13 28 31 30 43 51 55 57 55 52 45 38 31 24 19 12 6 4 8 16 19 20 20 19 21 23 27 29 32 34 37 39 35 39 40 41 45 45 49 51
18 31 37 20 29 17 24 39 12 8 6 25 35 41 44 50 54 54 51 45 40 32 26 21 13 6 5 13 18 16 16 17 17 21 24 28 29 31 34 35 38 36 37 38 42 46 48 51 56
Wind_Direction_500mb
328 328 299 254 241 234 186 128 83 126 106 114 83 58 74 47 31 98 87 53 88 110 93 135 120 117 152 161 150 155 143 127 11 349 351 345 349 350 344 355 347 343 337 337 333 334 331 333 327
327 291 265 265 252 219 132 113 190 89 103 104 104 106 74 70 60 94 74 63 71 97 155 110 116 130 224 221 334 294 293 303 283 299 314 320 327 326 324 323 317 317 319 321 326 325 321 322 319
324 273 266 237 247 332 119 163 96 118 134 119 81 75 51 51 59 86 74 53 52 71 87 106 113 152 207 252 286 289 296 291 287 293 295 303 313 315 314 311 307 303 305 310 312 313 314 315 314
299 229 242 250 231 36 100 124 133 151 150 124 113 89 84 56 97 102 64 71 70 70 93 108 121 117 3 333 321 297 282 275 270 274 280 287 288 293 301 305 305 301 299 300 305 306 307 308 308
263 263 260 244 83 122 83 134 170 148 110 137 130 98 91 78 111 104 78 83 80 78 77 103 81 52 6 333 316 303 299 292 288 286 287 291 293 294 294 296 301 300 299 296 295 296 300 303 302
257 263 250 205 132 145 120 167 187 138 133 96 102 108 81 111 115 106 87 95 113 99 101 97 83 50 21 358 336 328 318 308 298 292 291 294 295 295 296 294 291 296 299 299 298 298 298 299 298
254 261 272 8 127 166 134 157 179 140 121 59 127 105 118 127 124 107 101 105 121 126 123 115 98 56 39 41 30 11 346 325 315 312 307 303 297 301 296 293 289 285 286 288 292 296 296 295 296
268 272 270 231 170 150 144 128 159 155 88 122 41 145 156 152 129 114 98 93 112 118 113 109 106 75 61 49 44 25 7 355 340 326 315 307 293 291 302 301 286 285 285 285 285 282 284 288 289
260 252 236 205 203 129 152 151 99 110 124 91 73 96 128 140 131 123 112 96 89 106 116 120 120 108 85 54 39 19 6 353 336 331 338 332 322 315 303 302 299 299 293 292 293 293 289 285 282
253 256 272 77 205 137 172 171 151 138 133 110 109 116 126 133 141 139 124 100 85 97 111 115 105 93 80 58 44 31 18 10 3 359 353 347 343 331 328 325 319 307 285 290 290 286 290 285 284
244 260 49 135 123 167 183 178 169 184 184 157 145 137 137 138 134 125 113 102 91 96 100 100 91 69 46 49 46 46 40 33 24 21 13 4 353 341 339 340 334 336 328 303 291 289 284 278 277
272 254 267 157 148 232 189 157 155 8 66 124 140 140 138 137 134 130 120 105 89 93 100 103 96 88 80 74 57 41 26 17 7 359 355 352 345 340 338 337 345 342 330 329 326 310 290 285 279
253 248 224 175 192 213 216 183 163 119 116 127 137 141 142 141 137 128 116 104 95 90 101 107 108 102 86 62 39 25 16 2 354 343 338 336 334 331 329 329 336 335 326 329 324 324 316 306 293
342 279 241 213 214 197 208 157 164 156 146 142 146 147 149 147 143 130 123 114 102 107 115 115 108 92 70 46 23 3 353 346 339 334 330 330 328 326 328 329 331 331 325 322 325 319 320 312 312
258 254 231 234 227 201 221 192 217 158 162 158 158 156 151 148 142 136 129 120 112 113 125 126 128 122 83 27 1 350 345 339 332 329 324 325 325 326 327 324 324 321 329 326 325 324 322 317 313
248 235 253 219 208 216 203 225 177 167 168 169 167 166 161 157 152 143 137 124 113 110 116 123 98 58 29 11 357 349 344 346 339 335 331 329 327 325 329 331 325 321 327 329 329 328 324 319 316
229 250 223 175 198 195 211 242 145 175 182 175 178 177 172 167 163 157 147 136 121 113 113 107 87 57 27 10 3 359 349 349 349 344 340 337 335 334 335 335 326 329 330 332 328 325 326 322 320
232 224 241 259 177 220 206 239 156 185 193 189 189 187 184 182 176 168 157 142 131 141 134 115 76 42 24 17 15 359 357 351 348 348 340 341 338 337 338 337 330 331 331 327 324 325 322 323 321
281 285 288 247 152 219 226 236 171 189 202 200 197 195 192 190 179 172 165 151 138 140 123 121 89 56 45 17 14 5 359 350 353 346 339 336 335 332 336 333 332 330 332 329 330 328 328 327 329
255 256 259 261 145 239 259 236 216 182 208 207 204 200 196 189 185 181 172 162 152 143 132 109 84 52 39 22 9 2 353 351 345 342 345 336 338 337 339 334 333 328 327 326 326 332 329 325 330
244 247 251 258 209 219 267 247 230 189 207 215 210 205 201 196 191 187 180 170 159 148 135 117 85 42 19 24 4 3 358 350 338 341 339 335 334 336 334 334 334 334 331 325 321 326 328 327 329
252 234 249 261 242 254 196 266 246 192 204 209 206 206 201 198 197 193 187 180 171 160 150 124 103 58 11 9 5 1 358 346 336 334 329 334 333 333 336 335 333 332 327 323 322 322 325 326 323
256 310 248 243 249 255 225 249 257 190 200 210 206 205 203 199 196 194 192 186 175 163 157 138 113 72 12 358 355 357 344 337 335 333 330 333 329 331 330 330 330 327 324 315 319 323 319 319 316
253 246 239 246 248 248 243 249 252 211 201 212 204 206 202 197 197 196 193 187 180 167 158 144 135 98 14 1 343 341 341 340 336 331 332 326 330 325 323 328 327 322 320 317 321 320 321 314 313
209 225 229 225 223 244 243 230 237 145 172 219 200 199 197 197 197 194 191 190 186 174 168 160 152 138 27 356 344 343 342 344 338 332 329 328 326 327 329 327 322 326 325 322 320 323 317 316 312
218 220 227 237 249 262 226 236 247 45 130 145 219 189 192 196 194 195 194 193 188 179 172 165 161 151 47 359 345 347 342 340 338 327 329 329 326 325 323 319 323 327 322 318 323 324 319 318 310
225 222 240 265 280 269 264 260 159 161 164 168 176 179 189 193 193 195 194 193 190 181 175 169 162 154 64 353 338 341 340 334 332 330 330 325 325 321 322 323 324 326 322 320 324 321 318 317 316
246 229 237 231 251 247 253 257 273 188 183 176 188 190 189 192 192 193 192 190 189 182 175 169 161 169 36 341 334 333 334 332 330 333 329 327 323 326 323 320 325 327 322 323 321 319 313 320 313
216 238 238 242 234 256 267 264 304 348 181 185 185 190 190 190 191 192 190 190 188 182 180 174 170 170 259 321 326 333 330 330 333 329 328 325 328 325 326 328 324 325 323 324 325 318 323 318 317
284 237 228 238 247 251 260 261 83 30 154 171 184 188 191 191 191 191 189 189 188 183 180 178 180 178 295 321 325 333 329 329 337 331 332 329 328 327 326 325 324 325 323 327 324 321 323 322 319
Wind_Speed_850mb
13 19 14 13 15 17 8 11 13 19 14 11 9 32 43 49 25 23 18 26 20 23 24 6 5 3 3 3 2 2 3 3 2 4 5 7 7 7 7 7 8 8 9 10 12 13 14 15 16
13 15 14 23 18 22 15 13 18 28 27 35 33 29 27 21 31 16 19 19 11 12 9 11 7 3 1 1 1 2 2 1 3 4 6 8 8 9 9 8 7 8 10 12 14 15 16 17 18
14 16 28 14 22 21 19 15 27 31 23 20 22 26 17 18 19 13 18 12 10 19 11 10 6 3 1 1 2 3 4 5 6 7 8 9 11 12 13 12 11 10 12 13 15 17 19 20 20
10 17 20 20 21 16 24 25 29 28 19 9 31 24 22 15 9 20 21 13 16 17 7 8 4 2 1 4 5 6 7 8 9 9 10 10 11 12 14 15 16 16 16 16 18 20 22 22 21
16 25 23 24 11 7 9 23 26 26 18 18 23 19 20 14 20 24 17 17 16 15 8 8 6 3 3 5 5 6 9 10 12 13 14 15 15 16 16 17 18 20 21 22 21 22 23 25 24
24 16 20 19 19 11 14 20 19 17 19 21 35 28 17 11 18 21 18 15 15 15 11 11 10 10 13 13 11 10 10 12 14 15 16 17 19 20 21 21 20 21 25 27 28 28 28 28 28
27 16 30 6 18 20 19 18 21 25 23 18 14 15 16 14 19 20 18 15 12 10 10 10 10 11 10 14 14 12 12 12 14 16 17 17 19 21 22 25 27 26 26 27 28 30 33 33 34
24 13 20 14 20 22 16 15 8 20 21 13 10 14 21 24 23 20 19 16 12 12 9 6 4 5 8 9 9 11 13 13 14 15 17 17 20 19 18 20 28 29 32 33 34 30 31 34 35
18 18 20 17 19 25 26 24 9 13 28 17 12 26 31 33 28 24 21 18 15 14 13 11 10 8 9 10 9 12 12 13 13 15 14 17 19 20 20 28 30 32 33 36 39 40 41 39 40
24 20 13 10 8 21 29 25 26 23 28 22 31 31 33 31 26 22 17 18 19 18 16 14 12 10 12 11 11 13 13 14 16 18 18 19 21 26 29 28 30 29 32 31 35 38 42 46 41
21 26 13 4 6 9 23 22 18 28 26 24 33 37 33 31 27 23 21 20 20 18 19 17 13 11 11 16 19 22 24 24 25 25 25 23 21 23 24 24 24 27 37 33 36 40 37 36 38
25 9 13 14 9 15 17 22 11 14 27 28 36 35 33 30 26 22 20 20 18 19 18 16 15 15 17 18 17 19 21 24 26 28 28 30 32 33 32 30 29 27 26 31 34 37 40 44 44
24 13 14 8 16 20 6 17 16 20 29 35 36 33 31 27 25 23 22 21 20 18 17 17 16 14 12 12 14 16 18 19 21 25 29 32 33 33 33 33 29 29 32 32 35 33 36 42 39
12 17 20 23 27 21 24 11 28 21 29 33 34 32 29 26 25 24 21 20 19 16 15 15 12 10 9 9 11 14 18 22 27 32 34 33 35 39 41 37 32 31 36 37 36 35 36 38 42
24 24 28 30 32 23 31 31 36 44 37 35 33 30 28 25 23 20 19 19 16 15 14 13 11 8 5 7 11 15 18 20 22 26 34 39 43 42 38 34 34 36 41 40 37 37 35 37 39
24 30 31 36 35 32 30 35 38 41 46 40 36 32 30 27 23 21 19 18 15 15 12 9 7 7 9 11 14 16 21 21 24 28 32 38 39 40 41 36 34 42 38 36 36 37 40 42 45
33 28 38 18 24 23 32 34 31 41 42 41 40 38 36 31 26 23 21 18 15 14 10 8 7 6 9 13 15 19 24 22 21 24 29 38 39 40 38 32 37 42 36 33 35 39 39 43 45
31 34 35 31 29 28 33 34 32 42 44 44 43 42 39 35 32 27 23 20 16 14 11 8 6 8 11 14 14 12 16 17 20 23 30 34 36 39 37 30 34 35 34 34 38 43 44 43 43
38 31 37 24 18 20 32 35 39 40 44 45 47 48 44 40 34 29 25 21 18 15 11 9 6 8 10 10 13 12 16 16 18 22 29 31 33 35 34 32 33 34 35 37 37 39 44 46 44
32 35 39 34 12 9 32 28 27 36 45 51 51 50 47 43 37 32 26 22 18 15 13 10 7 8 11 12 15 17 17 17 17 22 24 29 34 35 32 34 34 37 37 35 38 39 42 40 39
34 36 31 32 16 24 31 30 34 35 45 49 52 50 49 48 42 36 30 24 19 15 12 10 8 7 10 13 15 18 17 18 20 25 25 33 33 35 33 34 35 37 35 36 39 39 41 50 47
33 34 32 28 25 28 36 20 32 44 43 43 53 56 54 51 45 39 34 29 24 17 13 10 7 7 11 14 16 20 19 22 25 26 28 33 32 33 32 34 34 36 39 41 45 45 45 42 44
29 11 18 30 31 32 33 17 30 44 39 48 55 60 56 53 49 45 40 32 25 21 15 11 8 6 9 14 17 17 20 23 24 28 32 30 29 28 30 32 38 35 35 40 40 44 42 36 46
7 16 17 19 22 31 35 31 27 29 47 41 49 58 57 53 50 46 40 34 27 21 17 13 10 5 5 9 16 20 22 25 25 27 28 28 29 29 32 33 35 36 37 42 46 41 39 43 44
25 23 15 19 22 28 20 31 33 14 17 28 38 57 59 57 55 50 47 40 31 25 20 15 11 4 3 9 15 19 21 22 23 26 27 32 30 31 33 37 40 38 43 49 44 41 42 42 43
39 38 22 25 25 30 25 19 19 14 23 13 15 49 56 59 57 54 50 43 37 29 23 18 11 6 2 8 13 15 21 20 21 23 26 28 31 32 37 39 40 38 41 46 44 42 40 42 47
36 40 43 39 40 23 27 32 19 19 21 21 24 41 53 57 58 56 51 46 38 31 24 19 12 5 1 6 14 18 21 25 24 25 24 25 29 33 35 41 39 37 43 45 41 41 42 44 49
41 19 24 19 25 42 37 38 34 26 31 30 28 39 49 54 56 54 52 46 37 30 24 19 11 6 0 8 14 19 22 23 24 22 24 27 29 31 36 37 37 36 42 41 40 44 46 45 48
25 33 30 26 31 25 31 31 16 13 28 31 30 43 51 55 57 55 52 45 38 31 24 19 12 6 4 8 16 19 20 20 19 21 23 27 29 32 34 37 39 35 39 40 41 45 45 49 51
18 31 37 20 29 17 24 39 12 8 6 25 35 41 44 50 54 54 51 45 40 32 26 21 13 6 5 13 18 16 16 17 17 21 24 28 29 31 34 35 38 36 37 38 42 46 48 51 56
Wind_Direction_850mb
328 328 299 254 241 234 186 128 83 126 106 114 83 58 74 47 31 98 87 53 88 110 93 135 120 117 152 161 150 155 143 127 11 349 351 345 349 350 344 355 347 343 337 337 333 334 331 333 327
327 291 265 265 252 219 132 113 190 89 103 104 104 106 74 70 60 94 74 63 71 97 155 110 116 130 224 221 334 294 293 303 283 299 314 320 327 326 324 323 317 317 319 321 326 325 321 322 319
324 273 266 237 247 332 119 163 96 118 134 119 81 75 51 51 59 86 74 53 52 71 87 106 113 152 207 252 286 289 296 291 287 293 295 303 313 315 314 311 307 303 305 310 312 313 314 315 314
299 229 242 250 231 36 100 124 133 151 150 124 113 89 84 56 97 102 64 71 70 70 93 108 121 117 3 333 321 297 282 275 270 274 280 287 288 293 301 305 305 301 299 300 305 306 307 308 308
263 263 260 244 83 122 83 134 170 148 110 137 130 98 91 78 111 104 78 83 80 78 77 103 81 52 6 333 316 303 299 292 288 286 287 291 293 294 294 296 301 300 299 296 295 296 300 303 302
257 263 250 205 132 145 120 167 187 138 133 96 102 108 81 111 115 106 87 95 113 99 101 97 83 50 21 358 336 328 318 308 298 292 291 294 295 295 296 294 291 296 299 299 298 298 298 299 298
254 261 272 8 127 166 134 157 179 140 121 59 127 105 118 127 124 107 101 105 121 126 123 115 98 56 39 41 30 11 346 325 315 312 307 303 297 301 296 293 289 285 286 288 292 296 296 295 296
268 272 270 231 170 150 144 128 159 155 88 122 41 145 156 152 129 114 98 93 112 118 113 109 106 75 61 49 44 25 7 355 340 326 315 307 293 291 302 301 286 285 285 285 285 282 284 288 289
260 252 236 205 203 129 152 151 99 110 124 91 73 96 128 140 131 123 112 96 89 106 116 120 120 108 85 54 39 19 6 353 336 331 338 332 322 315 303 302 299 299 293 292 293 293 289 285 282
253 256 272 77 205 137 172 171 151 138 133 110 109 116 126 133 141 139 124 100 85 97 111 115 105 93 80 58 44 31 18 10 3 359 353 347 343 331 328 325 319 307 285 290 290 286 290 285 284
244 260 49 135 123 167 183 178 169 184 184 157 145 137 137 138 134 125 113 102 91 96 100 100 91 69 46 49 46 46 40 33 24 21 13 4 353 341 339 340 334 336 328 303 291 289 284 278 277
272 254 267 157 148 232 189 157 155 8 66 124 140 140 138 137 134 130 120 105 89 93 100 103 96 88 80 74 57 41 26 17 7 359 355 352 345 340 338 337 345 342 330 329 326 310 290 285 279
253 248 224 175 192 213 216 183 163 119 116 127 137 141 142 141 137 128 116 104 95 90 101 107 108 102 86 62 39 25 16 2 354 343 338 336 334 331 329 329 336 335 326 329 324 324 316 306 293
342 279 241 213 214 197 208 157 164 156 146 142 146 147 149 147 143 130 123 114 102 107 115 115 108 92 70 46 23 3 353 346 339 334 330 330 328 326 328 329 331 331 325 322 325 319 320 312 312
258 254 231 234 227 201 221 192 217 158 162 158 158 156 151 148 142 136 129 120 112 113 125 126 128 122 83 27 1 350 345 339 332 329 324 325 325 326 327 324 324 321 329 326 325 324 322 317 313
248 235 253 219 208 216 203 225 177 167 168 169 167 166 161 157 152 143 137 124 113 110 116 123 98 58 29 11 357 349 344 346 339 335 331 329 327 325 329 331 325 321 327 329 329 328 324 319 316
229 250 223 175 198 195 211 242 145 175 182 175 178 177 172 167 163 157 147 136 121 113 113 107 87 57 27 10 3 359 349 349 349 344 340 337 335 334 335 335 326 329 330 332 328 325 326 322 320
232 224 241 259 177 220 206 239 156 185 193 189 189 187 184 182 176 168 157 142 131 141 134 115 76 42 24 17 15 359 357 351 348 348 340 341 338 337 338 337 330 331 331 327 324 325 322 323 321
281 285 288 247 152 219 226 236 171 189 202 200 197 195 192 190 179 172 165 151 138 140 123 121 89 56 45 17 14 5 359 350 353 346 339 336 335 332 336 333 332 330 332 329 330 328 328 327 329
255 256 259 261 145 239 259 236 216 182 208 207 204 200 196 189 185 181 172 162 152 143 132 109 84 52 39 22 9 2 353 351 345 342 345 336 338 337 339 334 333 328 327 326 326 332 329 325 330
244 247 251 258 209 219 267 247 230 189 207 215 210 205 201 196 191 187 180 170 159 148 135 117 85 42 19 24 4 3 358 350 338 341 339 335 334 336 334 334 334 334 331 325 321 326 328 327 329
252 234 249 261 242 254 196 266 246 192 204 209 206 206 201 198 197 193 187 180 171 160 150 124 103 58 11 9 5 1 358 346 336 334 329 334 333 333 336 335 333 332 327 323 322 322 325 326 323
256 310 248 243 249 255 225 249 257 190 200 210 206 205 203 199 196 194 192 186 175 163 157 138 113 72 12 358 355 357 344 337 335 333 330 333 329 331 330 330 330 327 324 315 319 323 319 319 316
253 246 239 246 248 248 243 249 252 211 201 212 204 206 202 197 197 196 193 187 180 167 158 144 135 98 14 1 343 341 341 340 336 331 332 326 330 325 323 328 327 322 320 317 321 320 321 314 313
209 225 229 225 223 244 243 230 237 145 172 219 200 199 197 197 197 194 191 190 186 174 168 160 152 138 27 356 344 343 342 344 338 332 329 328 326 327 329 327 322 326 325 322 320 323 317 316 312
218 220 227 237 249 262 226 236 247 45 130 145 219 189 192 196 194 195 194 193 188 179 172 165 161 151 47 359 345 347 342 340 338 327 329 329 326 325 323 319 323 327 322 318 323 324 319 318 310
225 222 240 265 280 269 264 260 159 161 164 168 176 179 189 193 193 195 194 193 190 181 175 169 162 154 64 353 338 341 340 334 332 330 330 325 325 321 322 323 324 326 322 320 324 321 318 317 316
246 229 237 231 251 247 253 257 273 188 183 176 188 190 189 192 192 193 192 190 189 182 175 169 161 169 36 341 334 333 334 332 330 333 329 327 323 326 323 320 325 327 322 323 321 319 313 320 313
216 238 238 242 234 256 267 264 304 348 181 185 185 190 190 190 191 192 190 190 188 182 180 174 170 170 259 321 326 333 330 330 333 329 328 325 328 325 326 328 324 325 323 324 325 318 323 318 317
284 237 228 238 247 251 260 261 83 30 154 171 184 188 191 191 191 191 189 189 188 183 180 178 180 178 295 321 325 333 329 329 337 331 332 329 328 327 326 325 324 325 323 327 324 321 323 322 319